Le Mars, IA

9:50 AM CST on November 12, 2019 (GMT -0600)
Le Mars Municipal

Weather History for KLRJ - October, 2019

Change the Weather History Date:

Tuesday, October 22, 2019

  Actual Average Record
Temperature  
Mean Temperature 43 °F -  
Max Temperature 53 °F 62 °F 80 °F (2003)
Min Temperature 33 °F 38 °F 18 °F (1976)
Degree Days  
Heating Degree Days 22    
Moisture  
Dew Point 32 °F    
Average Humidity 69    
Maximum Humidity 100    
Minimum Humidity 38    
Precipitation  
Precipitation 0.01 in - - ()
Sea Level Pressure  
Sea Level Pressure 29.79 in    
Wind  
Wind Speed 18 mph (WNW)    
Max Wind Speed 28 mph    
Max Gust Speed 40 mph    
Visibility 10 miles    
Events      
Averages and records for this station are not official NWS values.
T = Trace of Precipitation, MM = Missing Value Source: NWS Daily Summary

Daily Weather History Graph

Daily Weather History Graph

Search for Another Location

Airport or City:

Astronomy

Oct. 22, 2019 Rise Set
Actual Time 7:46 AM CDT 6:31 PM CDT
Civil Twilight 7:17 AM CDT 7:00 PM CDT
Nautical Twilight 6:44 AM CDT 7:33 PM CDT
Astronomical Twilight 6:11 AM CDT 8:05 PM CDT
Moon 12:45 AM CDT (10/22) 3:52 PM CDT (10/22)
Length of Visible Light 11h 42m
Length of Day
10h 45m
Last Quarter, 37% of the Moon is Illuminated
Oct 22
Last Quarter
Oct 27
New
Nov 4
First Quarter
Nov 12
Full
Nov 19
Last Quarter

Hourly Weather History & Observations

Time (CDT) Temp. Windchill Dew Point Humidity Pressure Visibility Wind Dir Wind Speed Gust Speed Precip Events Conditions
12:15 AM 42.8 °F 34.0 °F 39.2 °F 87% 29.63 in 10.0 mi NW 20.7 mph 40.3 mph N/A   Overcast
12:35 AM 44.6 °F 35.9 °F 39.2 °F 81% 29.64 in 10.0 mi WNW 23.0 mph 36.8 mph N/A   Overcast
12:55 AM 44.6 °F 36.1 °F 39.2 °F 81% 29.65 in 10.0 mi WNW 21.9 mph 34.5 mph N/A   Overcast
1:15 AM 42.8 °F 32.7 °F 37.4 °F 81% 29.65 in 10.0 mi WNW 27.6 mph 36.8 mph N/A   Overcast
1:35 AM 42.8 °F 32.9 °F 37.4 °F 81% 29.66 in 10.0 mi WNW 26.5 mph 38.0 mph N/A   Overcast
1:55 AM 42.8 °F 33.8 °F 37.4 °F 81% 29.67 in 10.0 mi WNW 21.9 mph 32.2 mph N/A   Overcast
2:15 AM 41.0 °F 31.4 °F 35.6 °F 81% 29.67 in 10.0 mi NW 21.9 mph 35.7 mph N/A   Overcast
2:35 AM 41.0 °F 31.6 °F 35.6 °F 81% 29.68 in 10.0 mi NW 20.7 mph 29.9 mph N/A   Overcast
2:55 AM 41.0 °F 31.6 °F 35.6 °F 81% 29.69 in 10.0 mi WNW 20.7 mph 31.1 mph N/A   Overcast
3:15 AM 41.0 °F 32.8 °F 35.6 °F 81% 29.70 in 10.0 mi WNW 16.1 mph 25.3 mph N/A   Overcast
3:35 AM 41.0 °F 32.5 °F 35.6 °F 81% 29.70 in 10.0 mi WNW 17.3 mph 26.5 mph N/A   Overcast
3:55 AM 39.2 °F 29.6 °F 33.8 °F 81% 29.71 in 10.0 mi WNW 19.6 mph 28.8 mph 0.01 in   Overcast
4:15 AM 39.2 °F 30.5 °F 33.8 °F 81% 29.71 in 10.0 mi WNW 16.1 mph 28.8 mph N/A   Overcast
4:35 AM 39.2 °F 30.5 °F 33.8 °F 81% 29.72 in 10.0 mi WNW 16.1 mph 24.2 mph N/A   Mostly Cloudy
4:55 AM 39.2 °F 30.2 °F 32.0 °F 75% 29.72 in 10.0 mi WNW 17.3 mph 27.6 mph N/A   Mostly Cloudy
5:15 AM 39.2 °F 29.3 °F 32.0 °F 75% 29.73 in 10.0 mi WNW 20.7 mph 29.9 mph N/A   Mostly Cloudy
5:35 AM 39.2 °F 29.6 °F 32.0 °F 75% 29.73 in 10.0 mi WNW 19.6 mph 28.8 mph N/A   Overcast
5:55 AM 37.4 °F 27.5 °F 32.0 °F 81% 29.74 in 10.0 mi WNW 18.4 mph 29.9 mph N/A   Overcast
6:15 AM 37.4 °F 28.2 °F 32.0 °F 81% 29.75 in 10.0 mi WNW 16.1 mph 28.8 mph N/A   Scattered Clouds
6:35 AM 35.6 °F 25.9 °F 32.0 °F 87% 29.76 in 10.0 mi WNW 16.1 mph 23.0 mph N/A   Clear
6:55 AM 35.6 °F 26.2 °F 32.0 °F 87% 29.77 in 10.0 mi WNW 15.0 mph 32.2 mph N/A   Clear
7:15 AM 35.6 °F 26.2 °F 32.0 °F 87% 29.77 in 10.0 mi WNW 15.0 mph 28.8 mph N/A   Clear
7:35 AM 35.6 °F 25.9 °F 30.2 °F 81% 29.78 in 10.0 mi WNW 16.1 mph 27.6 mph N/A   Clear
7:55 AM 35.6 °F 25.5 °F 30.2 °F 81% 29.78 in 10.0 mi WNW 17.3 mph 24.2 mph N/A   Clear
8:15 AM 35.6 °F 26.2 °F 30.2 °F 81% 29.78 in 10.0 mi WNW 15.0 mph 24.2 mph N/A   Clear
8:35 AM 37.4 °F 28.2 °F 28.4 °F 70% 29.79 in 10.0 mi WNW 16.1 mph 23.0 mph N/A   Clear
8:55 AM 37.4 °F 28.2 °F 28.4 °F 70% 29.80 in 10.0 mi WNW 16.1 mph 26.5 mph N/A   Clear
9:15 AM 37.4 °F 26.9 °F 30.2 °F 75% 29.81 in 10.0 mi WNW 20.7 mph 27.6 mph N/A   Clear
9:35 AM 39.2 °F 29.6 °F 28.4 °F 65% 29.81 in 10.0 mi WNW 19.6 mph 28.8 mph N/A   Clear
9:55 AM 41.0 °F 30.9 °F 28.4 °F 61% 29.81 in 10.0 mi WNW 24.2 mph 29.9 mph N/A   Clear
10:15 AM 42.8 °F 34.3 °F 30.2 °F 61% 29.82 in 10.0 mi WNW 19.6 mph 29.9 mph N/A   Clear
10:55 AM 44.6 °F 35.5 °F 30.2 °F 57% 29.83 in 10.0 mi NW 25.3 mph 32.2 mph N/A   Clear
11:15 AM 46.4 °F 38.7 °F 28.4 °F 50% 29.84 in 10.0 mi WNW 20.7 mph 29.9 mph N/A   Clear
11:35 AM 46.4 °F 38.3 °F 28.4 °F 50% 29.84 in 10.0 mi WNW 23.0 mph 36.8 mph N/A   Clear
11:55 AM 48.2 °F - 30.2 °F 50% 29.85 in 10.0 mi WNW 19.6 mph 28.8 mph N/A   Clear
12:35 PM 48.2 °F - 30.2 °F 50% 29.85 in 10.0 mi NW 20.7 mph 29.9 mph N/A   Clear
12:55 PM 48.2 °F - 30.2 °F 50% 29.85 in 10.0 mi NW 18.4 mph 33.4 mph N/A   Clear
1:15 PM 50.0 °F - 30.2 °F 47% 29.84 in 10.0 mi WNW 18.4 mph 28.8 mph N/A   Clear
1:35 PM 50.0 °F - 28.4 °F 43% 29.84 in 10.0 mi NW 20.7 mph 29.9 mph N/A   Partly Cloudy
1:55 PM 51.8 °F - 30.2 °F 44% 29.83 in 10.0 mi West 19.6 mph 28.8 mph N/A   Scattered Clouds
2:15 PM 51.8 °F - 28.4 °F 41% 29.83 in 10.0 mi NW 17.3 mph 32.2 mph N/A   Partly Cloudy
2:35 PM 51.8 °F - 28.4 °F 41% 29.83 in 10.0 mi West 26.5 mph 38.0 mph N/A   Scattered Clouds
2:55 PM 51.8 °F - 28.4 °F 41% 29.83 in 10.0 mi WNW 18.4 mph 26.5 mph N/A   Scattered Clouds
3:15 PM 51.8 °F - 28.4 °F 41% 29.83 in 10.0 mi WNW 20.7 mph 33.4 mph N/A   Mostly Cloudy
3:35 PM 51.8 °F - 28.4 °F 41% 29.83 in 10.0 mi WNW 16.1 mph 32.2 mph N/A   Mostly Cloudy
3:55 PM 51.8 °F - 28.4 °F 41% 29.83 in 10.0 mi WNW 16.1 mph 24.2 mph N/A   Scattered Clouds
4:15 PM 53.6 °F - 28.4 °F 38% 29.83 in 10.0 mi WNW 18.4 mph 27.6 mph N/A   Scattered Clouds
4:35 PM 53.6 °F - 28.4 °F 38% 29.83 in 10.0 mi West 15.0 mph - N/A   Scattered Clouds
4:55 PM 51.8 °F - 30.2 °F 44% 29.83 in 10.0 mi West 12.7 mph 25.3 mph N/A   Scattered Clouds
5:15 PM 51.8 °F - 28.4 °F 41% 29.83 in 10.0 mi West 18.4 mph 26.5 mph N/A   Partly Cloudy
5:35 PM 51.8 °F - 30.2 °F 44% 29.83 in 10.0 mi West 15.0 mph 25.3 mph N/A   Scattered Clouds
5:55 PM 50.0 °F - 30.2 °F 47% 29.83 in 10.0 mi West 6.9 mph 13.8 mph N/A   Partly Cloudy
6:15 PM 48.2 °F - 30.2 °F 50% 29.83 in 10.0 mi West 6.9 mph - N/A   Clear
6:35 PM 46.4 °F 43.5 °F 30.2 °F 53% 29.83 in 10.0 mi West 5.8 mph - N/A   Scattered Clouds
6:55 PM 44.6 °F - 30.2 °F 57% 29.83 in 10.0 mi Calm Calm - N/A   Partly Cloudy
7:35 PM 41.0 °F - 32.0 °F 70% 29.83 in 9.0 mi Calm Calm - N/A   Clear
7:55 PM 39.2 °F - 35.6 °F 87% 29.83 in 10.0 mi Calm Calm - N/A   Clear
8:15 PM 39.2 °F - 35.6 °F 87% 29.83 in 10.0 mi Calm Calm - N/A   Clear
8:35 PM 37.4 °F 34.9 °F 35.6 °F 93% 29.83 in 10.0 mi South 3.5 mph - N/A   Clear
8:55 PM 37.4 °F 34.9 °F 33.8 °F 87% 29.83 in 10.0 mi South 3.5 mph - N/A   Clear
9:15 PM 35.6 °F 31.7 °F 32.0 °F 87% 29.82 in 10.0 mi South 4.6 mph - N/A   Clear
9:35 PM 37.4 °F - 32.0 °F 81% 29.83 in 10.0 mi Calm Calm - N/A   Clear
9:55 PM 35.6 °F - 32.0 °F 87% 29.82 in 10.0 mi Calm Calm - N/A   Clear
10:15 PM 35.6 °F - 33.8 °F 93% 29.83 in 10.0 mi Calm Calm - N/A   Clear
10:35 PM 35.6 °F - 33.8 °F 93% 29.83 in 10.0 mi Calm Calm - N/A   Clear
10:55 PM 35.6 °F - 33.8 °F 93% 29.83 in 10.0 mi Calm Calm - N/A   Clear
11:15 PM 33.8 °F 29.6 °F 33.8 °F 100% 29.83 in 10.0 mi South 4.6 mph - N/A   Clear
11:35 PM 33.8 °F 30.8 °F 32.0 °F 93% 29.82 in 10.0 mi South 3.5 mph - N/A   Clear
11:55 PM 35.6 °F 31.7 °F 32.0 °F 87% 29.82 in 10.0 mi South 4.6 mph - N/A   Clear